Terug naar catalogus

STARLINK-11163

ActiefCommunicatieVLEO
NORAD 60047·PAYLOAD·🇺🇸 United States

Gelanceerd Jun 8, 2024 vanaf Vandenberg Space Force Base

Loading…

Volgende Passages (komende 24 uur)

TLE

VersSource: CelesTrak SupGP

Epoch: Sep 14, 2026, 22:13 UTC

1 60047C 24112K   26257.92618056  .00090912  00000+0  75041-3 0  2573
2 60047  53.1571  53.2206 0001069  81.5743 335.7025 15.69614536    15

Volg STARLINK-11163 in realtime met AllMySat

Download on the App Store